Weather History for Camarillo, CA

Change the Weather History Date:

Sunday, December 9, 2012

  Actual Average Record
Temperature  
Mean Temperature 57 °F 54 °F  
Max Temperature 65 °F 66 °F 86 °F (1975)
Min Temperature 48 °F 42 °F 30 °F (1972)
Degree Days  
Heating Degree Days 8 11  
Month to date heating degree days 51 96  
Since 1 July heating degree days 278 428  
Cooling Degree Days 0 0  
Month to date cooling degree days 0 0  
Year to date cooling degree days 387 330  
Growing Degree Days 6 (Base 50)    
Moisture  
Dew Point 48 °F    
Average Humidity 77    
Maximum Humidity 93    
Minimum Humidity 60    
Precipitation  
Precipitation 0.00 in 0.04 in 1.67 in (1996)
Month to date precipitation 0.45 0.35  
Year to date precipitation 7.25 13.51  
Since 1 July precipitation 1.57 2.53  
Sea Level Pressure  
Sea Level Pressure 30.04 in    
Wind  
Wind Speed 3 mph (NE)    
Max Wind Speed 10 mph    
Max Gust Speed 12 mph    
Visibility 2 miles    
Events Fog    
T = Trace of Precipitation, MM = Missing Value Source: NWS Daily Summary

Daily Weather History Graph

Daily Weather History Graph

Search for Another Location

Airport:

Trip Planner

Search our weather history database for the weather conditions in past years. The results will help you decide how hot, cold, wet, or windy it might be!

Date:

Astronomy

Dec. 09, 2012 Rise Set
Actual Time 6:51 AM PST 4:46 PM PST
Civil Twilight 6:23 AM PST 5:14 PM PST
Nautical Twilight 5:52 AM PST 5:45 PM PST
Astronomical Twilight 5:21 AM PST 6:16 PM PST
Moon 2:37 AM PST (12/9) 1:50 PM PST (12/9)
Length of Visible Light 10h 51m
Length of Day
9h 55m
Waning Crescent, 17% of the Moon is Illuminated
Dec 9
Waning Crescent
Dec 13
New
Dec 19
First Quarter
Dec 28
Full
Jan 4
Last Quarter

Hourly Weather History & Observations

Time (PST) Temp. Dew Point Humidity Pressure Visibility Wind Dir Wind Speed Gust Speed Precip Events Conditions
12:12 AM 51.8 °F 46.4 °F 82% 29.96 in 3.0 mi ENE 3.5 mph - N/A   Clear
12:55 AM 50.0 °F 46.9 °F 89% 30.00 in 4.0 mi East 3.5 mph - N/A   Partly Cloudy
1:07 AM 50.0 °F 46.4 °F 87% 29.97 in 4.0 mi Calm Calm - N/A   Mostly Cloudy
1:34 AM 50.0 °F 46.4 °F 87% 29.97 in 2.5 mi Calm Calm - N/A   Overcast
1:55 AM 51.1 °F 48.0 °F 89% 30.01 in 3.0 mi Calm Calm - N/A   Overcast
2:08 AM 51.8 °F 48.2 °F 88% 29.98 in 2.5 mi Calm Calm - N/A   Overcast
2:21 AM 51.8 °F 46.4 °F 82% 29.97 in 3.0 mi ESE 3.5 mph - N/A   Haze
2:55 AM 51.1 °F 46.9 °F 86% 30.00 in 4.0 mi Calm Calm - N/A   Overcast
3:39 AM 51.8 °F 46.4 °F 82% 29.98 in 5.0 mi ENE 3.5 mph - N/A   Haze
4:13 AM 51.8 °F 46.4 °F 82% 29.98 in 4.0 mi NNE 3.5 mph - N/A   Overcast
4:25 AM 51.8 °F 46.4 °F 82% 29.98 in 2.5 mi NE 4.6 mph - N/A   Overcast
4:31 AM 51.8 °F 48.2 °F 88% 29.99 in 1.5 mi NE 4.6 mph - N/A   Overcast
4:41 AM 51.8 °F 50.0 °F 94% 29.99 in 0.5 mi NE 4.6 mph - N/A Fog Fog
4:55 AM 51.1 °F 48.9 °F 92% 30.02 in 1.0 mi NE 5.8 mph - N/A   Overcast
5:02 AM 51.8 °F 48.2 °F 88% 30.00 in 2.0 mi NE 4.6 mph - N/A   Overcast
5:11 AM 51.8 °F 48.2 °F 88% 30.00 in 4.0 mi NE 5.8 mph - N/A   Overcast
5:29 AM 51.8 °F 48.2 °F 88% 30.01 in 1.8 mi NE 4.6 mph - N/A   Overcast
5:37 AM 51.8 °F 48.2 °F 88% 30.01 in 0.8 mi NE 4.6 mph - N/A   Overcast
5:55 AM 51.1 °F 48.9 °F 92% 30.04 in 0.8 mi NE 5.8 mph - N/A   Mist
6:55 AM 48.9 °F 46.9 °F 93% 30.05 in 1.2 mi East 3.5 mph - N/A   Mostly Cloudy
7:55 AM 48.9 °F 46.0 °F 90% 30.07 in 1.5 mi ENE 4.6 mph - N/A   Clear
8:17 AM 48.2 °F 46.4 °F 93% 30.05 in 0.5 mi NE 6.9 mph - N/A Fog Fog
8:20 AM 48.2 °F 46.4 °F 93% 30.05 in 0.2 mi NE 4.6 mph - N/A Fog Fog
8:55 AM 50.0 °F 48.0 °F 93% 30.09 in 1.0 mi ENE 4.6 mph - N/A   Overcast
9:03 AM 51.8 °F 48.2 °F 88% 30.06 in 2.0 mi ENE 3.5 mph - N/A   Mostly Cloudy
9:06 AM 51.8 °F 48.2 °F 88% 30.06 in 2.0 mi ENE 3.5 mph - N/A   Clear
9:24 AM 53.6 °F 48.2 °F 82% 30.07 in 3.0 mi ENE 3.5 mph - N/A   Haze
9:55 AM 57.0 °F 50.0 °F 77% 30.10 in 3.0 mi Calm Calm - N/A   Haze
10:55 AM 61.0 °F 48.9 °F 64% 30.09 in 4.0 mi Calm Calm - N/A   Haze
11:55 AM 64.0 °F 50.0 °F 60% 30.06 in 4.0 mi Variable 3.5 mph - N/A   Haze
12:55 PM 64.0 °F 52.0 °F 65% 30.04 in 3.0 mi WSW 9.2 mph - N/A   Haze
1:55 PM 64.0 °F 52.0 °F 65% 30.04 in 4.0 mi WSW 6.9 mph - N/A   Haze
2:55 PM 63.0 °F 53.1 °F 70% 30.05 in 3.0 mi SSW 5.8 mph - N/A   Haze
3:55 PM 63.0 °F 53.1 °F 70% 30.05 in 3.0 mi West 4.6 mph - N/A   Haze
4:55 PM 60.1 °F 53.1 °F 78% 30.07 in 3.0 mi West 3.5 mph - N/A   Haze
5:55 PM 57.0 °F 52.0 °F 83% 30.08 in 2.5 mi Calm Calm - N/A   Haze
6:55 PM 55.9 °F 51.1 °F 84% 30.09 in 2.5 mi Calm Calm - N/A   Haze
7:55 PM 53.1 °F 48.9 °F 86% 30.10 in 2.5 mi Calm Calm - N/A   Clear
8:55 PM 52.0 °F 48.0 °F 86% 30.12 in 2.0 mi Calm Calm - N/A   Clear
9:55 PM 51.1 °F 48.0 °F 89% 30.13 in 2.5 mi ENE 3.5 mph - N/A   Clear
10:55 PM 50.0 °F 46.9 °F 89% 30.15 in 2.0 mi ENE 5.8 mph - N/A   Clear
11:55 PM 48.0 °F 45.0 °F 89% 30.14 in 2.0 mi Calm Calm - N/A   Clear